02/09/2026 / 06/09/2026
| Fecha / Hora | Descripción | Porcentaje Nubes | Temperatura | Humedad | Viento | |
| miércoles 02/09/2026 00:00 hs | cielo claro | 9 % | 25.8 ° | 83 % | 10.2 Km/h | |
| miércoles 02/09/2026 03:00 hs | algo de nubes | 16 % | 24.3 ° | 87 % | 9.3 Km/h | |
| miércoles 02/09/2026 06:00 hs | muy nuboso | 67 % | 23 ° | 91 % | 8.8 Km/h | |
| miércoles 02/09/2026 09:00 hs | muy nuboso | 66 % | 26.5 ° | 65 % | 15.3 Km/h | |
| miércoles 02/09/2026 12:00 hs | cielo claro | 2 % | 29.9 ° | 58 % | 18.8 Km/h | |
| miércoles 02/09/2026 15:00 hs | cielo claro | 2 % | 27.7 ° | 69 % | 18.3 Km/h | |
| miércoles 02/09/2026 18:00 hs | cielo claro | 0 % | 28.2 ° | 87 % | 11 Km/h | |
| miércoles 02/09/2026 21:00 hs | cielo claro | 3 % | 27.7 ° | 92 % | 7.1 Km/h | |
| jueves 03/09/2026 00:00 hs | lluvia ligera | 14 % | 23.1 ° | 94 % | 7.6 Km/h | |
| jueves 03/09/2026 03:00 hs | lluvia ligera | 55 % | 23 ° | 93 % | 5.7 Km/h | |
| jueves 03/09/2026 06:00 hs | lluvia ligera | 88 % | 22.4 ° | 94 % | 9.1 Km/h | |
| jueves 03/09/2026 09:00 hs | lluvia ligera | 79 % | 23.7 ° | 87 % | 10.8 Km/h | |
| jueves 03/09/2026 12:00 hs | lluvia ligera | 45 % | 26.4 ° | 83 % | 9.7 Km/h | |
| jueves 03/09/2026 15:00 hs | lluvia ligera | 39 % | 26.7 ° | 73 % | 9.4 Km/h | |
| jueves 03/09/2026 18:00 hs | lluvia ligera | 10 % | 23.3 ° | 85 % | 6.2 Km/h | |
| jueves 03/09/2026 21:00 hs | cielo claro | 5 % | 22.4 ° | 91 % | 3.2 Km/h | |
| viernes 04/09/2026 00:00 hs | lluvia ligera | 21 % | 21.4 ° | 93 % | 3.1 Km/h | |
| viernes 04/09/2026 03:00 hs | lluvia ligera | 42 % | 20.5 ° | 97 % | 6.9 Km/h | |
| viernes 04/09/2026 06:00 hs | muy nuboso | 74 % | 21.1 ° | 93 % | 4.7 Km/h | |
| viernes 04/09/2026 09:00 hs | nubes dispersas | 47 % | 27.1 ° | 64 % | 5.3 Km/h | |
| viernes 04/09/2026 12:00 hs | muy nuboso | 60 % | 27.3 ° | 65 % | 12.1 Km/h | |
| viernes 04/09/2026 15:00 hs | muy nuboso | 59 % | 26.8 ° | 69 % | 12.2 Km/h | |
| viernes 04/09/2026 18:00 hs | nubes dispersas | 25 % | 23.9 ° | 82 % | 12.1 Km/h | |
| viernes 04/09/2026 21:00 hs | algo de nubes | 18 % | 23.2 ° | 90 % | 11.8 Km/h | |
| sábado 05/09/2026 00:00 hs | nubes dispersas | 38 % | 22.1 ° | 93 % | 10 Km/h | |
| sábado 05/09/2026 03:00 hs | lluvia ligera | 61 % | 22.3 ° | 92 % | 9.4 Km/h | |
| sábado 05/09/2026 06:00 hs | muy nuboso | 73 % | 21.9 ° | 92 % | 9.3 Km/h | |
| sábado 05/09/2026 09:00 hs | muy nuboso | 80 % | 25.1 ° | 69 % | 11.4 Km/h | |
| sábado 05/09/2026 12:00 hs | nubes dispersas | 33 % | 28.6 ° | 56 % | 18.4 Km/h | |
| sábado 05/09/2026 15:00 hs | algo de nubes | 16 % | 27.1 ° | 62 % | 17.6 Km/h | |
| sábado 05/09/2026 18:00 hs | cielo claro | 0 % | 23.8 ° | 81 % | 12.9 Km/h | |
| sábado 05/09/2026 21:00 hs | cielo claro | 0 % | 23.3 ° | 85 % | 12.9 Km/h | |
| domingo 06/09/2026 00:00 hs | nubes dispersas | 27 % | 22.1 ° | 90 % | 10.3 Km/h | |
| domingo 06/09/2026 03:00 hs | nubes dispersas | 48 % | 21.9 ° | 90 % | 9.1 Km/h | |
| domingo 06/09/2026 06:00 hs | nubes | 100 % | 22.7 ° | 85 % | 9.8 Km/h | |
| domingo 06/09/2026 09:00 hs | nubes | 99 % | 26.6 ° | 65 % | 13.4 Km/h | |
| domingo 06/09/2026 12:00 hs | algo de nubes | 15 % | 29.3 ° | 55 % | 19.6 Km/h | |
| domingo 06/09/2026 15:00 hs | cielo claro | 7 % | 27.4 ° | 63 % | 18.2 Km/h | |
| domingo 06/09/2026 18:00 hs | cielo claro | 0 % | 24.2 ° | 82 % | 14 Km/h | |
| domingo 06/09/2026 21:00 hs | cielo claro | 0 % | 23.8 ° | 87 % | 12.6 Km/h |
Fuente: Open Weather Map
© 2009 / 2026 - BrasilPlayas.com
Diseño y desarrollo: ArraialWebDesign
Los artículos publicados en esta web son propiedad intelectual de sus respectivos autores, que se reservan todos los derechos sobre los mismos
Las imágenes contenidas en este sitio están sujetas a la respectiva licencia y acreditación que las acompaña
Este website usa Cookies. Saber más sobre nuestra política de Cookies